Location: Scottsdale
(33.5090°N, 111.8980°W)
Time: 15:44:57
(UTC-07:00)

ISS - Visible Passes

Search period start: 28 June 2017 00:00
Search period end: 08 July 2017 00:00
Orbit: 401 x 408 km, 51.6° (Epoch: 29 June)

Date Brightness Start Highest point End Pass type
(mag) Time Alt. Az. Time Alt. Az. Time Alt. Az.
02 Jul -1.6 04:22:08 10° S 04:24:33 19° SE 04:26:59 10° E visible
04 Jul -3.5 04:14:23 21° SSW 04:16:20 58° SE 04:19:33 10° NE visible
05 Jul -2.2 03:24:18 25° SE 03:24:18 25° SE 03:26:56 10° ENE visible
06 Jul -3.2 04:06:46 26° W 04:08:15 45° NW 04:11:24 10° NE visible
07 Jul -3.3 03:16:31 56° ENE 03:16:31 56° ENE 03:19:12 10° NE visible
07 Jul -1.2 04:51:28 10° NW 04:52:47 12° NNW 04:54:06 10° N visible
